User: anonymous   Login
Location: French Creek State Gamelands
(40.1750°N, 75.7969°W)
Time: 11:11:42
(UTC-05:00)
Language:

ISS - Orbit

View from above orbital plane
View from above orbital plane
View from above satellite
View from above satellite

Ground track
Ground track

The orbit data is extracted from the following two-line orbital elements,

1 25544U 98067A   14328.46677069  .00026825  00000-0  45282-3 0  4535
2 25544 051.6464 024.9572 0007230 066.1033 070.3216 15.51414029916195
Epoch (UTC): 24 November 2014 11:12:08
Eccentricity: 0.0007230
inclination: 51.6464°
perigee height: 407 km
apogee height: 417 km
right ascension of ascending node: 24.9572°
argument of perigee: 66.1033°
revolutions per day: 15.51414029
mean anomaly at epoch: 70.3216°
orbit number at epoch: 91619

The dashed part of the orbit path shows where the satellite is in the earth's shadow,  

DLR